Home   Weather   Cuxhaven   Past weeks

Flag for Germany Past Weather in Cuxhaven, Lower Saxony, Germany — Yesterday and Last 2 Weeks

Now
41 °F

Broken clouds.


Feels Like: 32 °F
Forecast: 38 / 46 °F
Wind: 17 mph from Southwest

Location: Nordholz

Current Time: Apr 24, 2017 at 7:40:47 am

Latest Report: Apr 24, 2017 at 6:20 am


Visibility: N/A

Pressure: 29.92 "Hg

Humidity: 81%

Dew Point: 36 °F

Location of CuxhavenLocation

Past Weather in Cuxhaven — Graph

°F

Cuxhaven Temperature Yesterday

Maximum temperature yesterday: 46 °F (at 1:20 pm)
Minimum temperature yesterday: 41 °F (at 1:20 am)
Average temperature yesterday: 43 °F

High & Low Weather Summary for the Past Weeks

 TemperatureHumidityPressure
High66 °F (Apr 9, 5:20 pm)100% (Apr 12, 2:50 pm)30.63 "Hg (Apr 12, 2:50 pm)
Low28 °F (Apr 19, 4:20 am)37% (Apr 9, 6:20 pm)29.71 "Hg (Apr 15, 6:20 am)
Average45 °F75%30.11 "Hg
* Reported Apr 9 5:20 am — Apr 24 5:20 am, Cuxhaven, Weather by CustomWeather, © 2017

Note: Actual official high and low records may vary slightly from our data, if they occured in-between our weather recording intervals... More about our weather records

Advertising

Cuxhaven Weather History for the Previous 24 Hours

Scroll right to see more
 ConditionsComfort  
Time TempWeatherWind HumidityBarometerVisibility
5:20 am
Mon, Apr 24
41 °FPassing clouds.14 mph76%29.98 "HgN/A
4:20 am39 °FPartly cloudy.14 mph87%30.01 "HgN/A
3:20 am41 °FPassing clouds.12 mph81%30.04 "HgN/A
2:20 am41 °FPassing clouds.10 mph81%30.07 "HgN/A
1:20 am39 °FPassing clouds.9 mph87%30.12 "HgN/A
12:20 am41 °FPassing clouds.9 mph81%30.12 "HgN/A
11:20 pm
Sun, Apr 23
43 °FPassing clouds.10 mph71%30.15 "HgN/A
10:20 pm43 °FPassing clouds.12 mph71%30.15 "HgN/A
9:20 pm43 °FPassing clouds.14 mph71%30.18 "HgN/A
8:20 pm43 °FBroken clouds.14 mph71%30.15 "HgN/A
7:20 pm45 °FPartly sunny.20 mph61%30.18 "HgN/A
6:20 pm45 °FScattered showers. Scattered clouds.22 mph66%30.15 "HgN/A
5:20 pm46 °FScattered showers. Partly sunny.24 mph57%30.15 "HgN/A
4:20 pm45 °FScattered showers. Broken clouds.25 mph61%30.15 "HgN/A
3:20 pm45 °FScattered showers. Broken clouds.24 mph66%30.18 "HgN/A
2:20 pm46 °FBroken clouds.22 mph62%30.15 "HgN/A
1:20 pm46 °FScattered showers. Broken clouds.23 mph57%30.15 "HgN/A
12:20 pm45 °FBroken clouds.23 mph61%30.15 "HgN/A
11:20 am43 °FScattered clouds.24 mph71%30.15 "HgN/A
10:20 am45 °FPartly sunny.21 mph66%30.15 "HgN/A
9:54 am43 °FSnow flurries. Partly sunny.20 mph71%30.15 "HgN/A
8:40 am43 °FSprinkles. Broken clouds.21 mph66%30.12 "Hg6 mi
8:20 am41 °FScattered showers. Broken clouds.18 mph70%30.12 "HgN/A
7:20 am41 °FPartly sunny.17 mph70%30.12 "HgN/A
Weather by CustomWeather, © 2017

See weather overviewHow to use our weather pages